EW1783 Weather Reports


time (UTC)temp
C
wind
direction
speed
KPH
gust
KPH
rain 1hr
cm
rain 24hr
cm
rain mn
cm
humidity
%
barometer
mb
20260509173003 18 80 0.0 1.6 0.00 0.00 0.00 62 1008.0
20260509171627 17 231 0.0 0.0 0.00 0.00 0.00 67 1008.4
20260509170055 16 72 0.0 0.0 0.00 0.00 0.00 68 1008.7
20260509164555 16 22 0.0 0.0 0.00 0.00 0.00 70 1008.5
20260509163107 16 65 0.0 0.0 0.00 0.00 0.00 68 1008.4
20260509161554 16 57 0.0 0.0 0.00 0.00 0.00 68 1008.3
20260509160050 15 59 0.0 0.0 0.00 0.00 0.00 69 1008.6
20260509154551 15 59 0.0 0.0 0.00 0.00 0.00 71 1008.5
20260509153050 15 65 0.0 3.2 0.00 0.00 0.00 71 1008.8
20260509151543 15 66 0.0 0.0 0.00 0.00 0.00 72 1008.6
20260509150046 15 53 0.0 0.0 0.00 0.00 0.00 72 1008.8
20260509144603 14 22 0.0 0.0 0.00 0.00 0.00 75 1009.0
20260509143037 13 14 0.0 0.0 0.00 0.00 0.00 77 1009.0
20260509141535 13 14 0.0 0.0 0.00 0.00 0.00 78 1008.8
20260509140027 12 47 0.0 0.0 0.00 0.00 0.00 78 1008.6
20260509134526 12 47 0.0 0.0 0.00 0.00 0.00 78 1008.5
20260509133024 12 47 0.0 0.0 0.00 0.00 0.00 78 1008.5
20260509131523 12 19 0.0 0.0 0.00 0.00 0.00 78 1008.7
20260509130019 12 335 0.0 0.0 0.00 0.00 0.00 77 1008.7
20260509124516 12 81 0.0 0.0 0.00 0.00 0.00 76 1008.7
20260509123015 12 81 0.0 0.0 0.00 0.00 0.00 76 1008.7
20260509121523 11 81 0.0 0.0 0.00 0.00 0.00 77 1008.8
20260509120014 11 18 0.0 0.0 0.00 0.00 0.00 76 1008.8
20260509114510 11 327 0.0 0.0 0.00 0.00 0.00 73 1008.8
20260509113008 11 327 0.0 0.0 0.00 0.00 0.00 76 1008.6
20260509111510 11 327 0.0 0.0 0.00 0.00 0.00 79 1008.4
20260509110005 11 327 0.0 0.0 0.00 0.00 0.00 79 1008.5
20260509104515 11 330 0.0 0.0 0.00 0.00 0.00 79 1008.5
20260509103004 11 60 0.0 0.0 0.00 0.00 0.00 79 1008.3
20260509101504 11 60 0.0 0.0 0.00 0.00 0.00 79 1008.0
20260509100003 11 60 0.0 0.0 0.00 0.00 0.00 79 1007.9
20260509094507 11 360 0.0 0.0 0.00 0.00 0.00 79 1007.8
20260509093001 11 360 0.0 0.0 0.00 0.00 0.00 78 1007.8
20260509091501 11 360 0.0 0.0 0.00 0.00 0.00 78 1007.7
20260509090107 11 360 0.0 0.0 0.00 0.00 0.00 78 1007.8
20260509084602 11 360 0.0 0.0 0.00 0.00 0.00 77 1007.9
20260509083057 11 360 0.0 0.0 0.00 0.00 0.00 77 1007.9
20260509081557 11 360 0.0 0.0 0.00 0.00 0.00 77 1008.0
20260509080059 11 360 0.0 0.0 0.00 0.00 0.00 78 1008.1
20260509074558 11 360 0.0 0.0 0.00 0.00 0.00 79 1008.1
20260509073055 11 360 0.0 0.0 0.00 0.00 0.00 79 1007.9
20260509071557 10 360 0.0 0.0 0.00 0.00 0.00 79 1008.0
20260509070050 10 360 0.0 0.0 0.00 0.00 0.00 79 1008.1
20260509064548 10 360 0.0 0.0 0.00 0.00 0.00 78 1008.1
20260509063046 10 360 0.0 0.0 0.00 0.00 0.00 78 1008.3
20260509061549 10 360 0.0 0.0 0.00 0.00 0.00 76 1008.4
20260509060052 10 360 0.0 0.0 0.00 0.00 0.00 77 1008.5
20260509054549 10 360 0.0 0.0 0.00 0.00 0.00 78 1008.5
20260509053041 10 360 0.0 0.0 0.00 0.00 0.00 79 1008.6
20260509051540 10 360 0.0 0.0 0.00 0.00 0.00 79 1008.4
20260509050049 10 360 0.0 0.0 0.00 0.00 0.00 79 1008.4
20260509044546 10 360 0.0 0.0 0.00 0.00 0.00 78 1008.5
20260509043035 10 360 0.0 0.0 0.00 0.00 0.00 78 1008.8
20260509041534 10 360 0.0 0.0 0.00 0.00 0.00 76 1008.8
20260509040031 10 360 0.0 0.0 0.00 0.00 0.00 76 1008.8
20260509034531 10 360 0.0 0.0 0.00 0.00 0.00 75 1008.9
20260509033031 11 360 0.0 0.0 0.00 0.00 0.00 74 1008.9
20260509031532 11 360 0.0 0.0 0.00 0.00 0.00 72 1008.9
20260509030032 12 360 0.0 0.0 0.00 0.00 0.00 71 1008.9
20260509024529 12 360 0.0 0.0 0.00 0.00 0.00 69 1009.0
20260509023031 12 360 0.0 0.0 0.00 0.00 0.00 68 1009.2
20260509021528 13 360 0.0 0.0 0.00 0.00 0.00 66 1009.3
20260509020028 13 360 0.0 0.0 0.00 0.00 0.00 63 1009.3
20260509014527 14 360 0.0 0.0 0.00 0.00 0.00 61 1009.0
20260509013037 15 360 0.0 0.0 0.00 0.00 0.00 59 1009.1
20260509011526 15 360 0.0 0.0 0.00 0.00 0.00 57 1009.0
20260509010025 16 360 0.0 0.0 0.00 0.00 0.00 56 1009.0
20260509004526 16 360 0.0 0.0 0.00 0.00 0.00 51 1009.0
20260509003025 17 360 0.0 0.0 0.00 0.00 0.00 53 1009.0
20260509001524 17 360 0.0 0.0 0.00 0.00 0.00 51 1008.8
20260509000023 18 360 0.0 0.0 0.00 0.00 0.00 48 1008.7
20260508234523 18 360 0.0 0.0 0.00 0.00 0.00 47 1008.6
20260508233021 18 360 0.0 0.0 0.00 0.00 0.00 43 1008.4
20260508231521 19 219 0.0 0.0 0.00 0.00 0.00 44 1008.4
20260508230040 19 219 0.0 0.0 0.00 0.00 0.00 43 1008.4
20260508224542 19 219 0.0 0.0 0.00 0.00 0.00 42 1008.5
20260508223027 20 219 0.0 0.0 0.00 0.00 0.00 41 1008.5
20260508221518 20 219 0.0 0.0 0.00 0.00 0.00 39 1008.4
20260508220018 20 209 0.0 0.0 0.00 0.00 0.00 38 1008.5
20260508214517 20 207 0.0 0.0 0.00 0.00 0.00 38 1008.5
20260508213016 20 249 0.0 0.0 0.00 0.00 0.00 38 1008.6
20260508211515 20 234 0.0 0.0 0.00 0.00 0.00 37 1008.7
20260508210015 20 269 0.0 0.0 0.00 0.00 0.00 35 1008.7
20260508204518 20 263 0.0 1.6 0.00 0.00 0.00 35 1008.7
20260508203013 21 281 0.0 1.6 0.00 0.00 0.00 33 1008.7
20260508201512 22 266 0.0 3.2 0.00 0.00 0.00 33 1008.8
20260508200014 22 267 0.0 1.6 0.00 0.00 0.00 32 1008.8
20260508194509 23 211 0.0 6.4 0.00 0.00 0.00 29 1008.9
20260508193007 23 291 0.0 6.4 0.00 0.00 0.00 32 1009.1
20260508191505 22 350 0.0 1.6 0.00 0.00 0.00 33 1009.3
20260508190005 22 273 0.0 4.8 0.00 0.00 0.00 32 1009.5
20260508184503 23 261 0.0 1.6 0.00 0.00 0.00 31 1009.7
20260508183001 23 253 0.0 6.4 0.00 0.00 0.00 32 1009.8
20260508181602 22 256 0.0 4.8 0.00 0.00 0.00 31 1009.9
20260508180104 22 286 0.0 6.4 0.00 0.00 0.00 33 1010.0
20260508174657 22 200 0.0 6.4 0.00 0.00 0.00 31 1010.5